Change the Weather History Date:

Tuesday, July 10, 2012

  Actual Average Record
Temperature  
Mean Temperature 74 °F 74 °F  
Max Temperature 88 °F 87 °F 94 °F (2011)
Min Temperature 59 °F 61 °F 57 °F (1999)
Degree Days  
Heating Degree Days 0 0  
Month to date heating degree days 0 0  
Since 1 June heating degree days 16 37  
Since 1 July heating degree days 0 0  
Cooling Degree Days 9 9  
Month to date cooling degree days 160 88  
Year to date cooling degree days 535 291  
Since 1 June cooling degree days 448 250  
Growing Degree Days 22 (Base 50)    
Moisture  
Dew Point 58 °F    
Average Humidity 65    
Maximum Humidity 93    
Minimum Humidity 37    
Precipitation  
Precipitation 0.00 in 0.08 in 1.09 in (1986)
Month to date precipitation 0.00 0.89  
Year to date precipitation 9.98 13.67  
Sea Level Pressure  
Sea Level Pressure 30.14 in    
Wind  
Wind Speed 4 mph (SE)    
Max Wind Speed 13 mph    
Max Gust Speed 21 mph    
Visibility 10 miles    
Events      
T = Trace of Precipitation, MM = Missing Value Source: NWS Daily Summary

Daily Weather History Graph

Daily Weather History Graph

Search for Another Location

Airport or City:

Trip Planner

Search our weather history database for the weather conditions in past years. The results will help you decide how hot, cold, wet, or windy it might be!

Date:

Astronomy

Jul. 10, 2012 Rise Set
Actual Time 6:11 AM CDT 9:10 PM CDT
Civil Twilight 5:37 AM CDT 9:44 PM CDT
Nautical Twilight 4:55 AM CDT 10:26 PM CDT
Astronomical Twilight 4:05 AM CDT 11:16 PM CDT
Moon 12:21 AM CDT (7/10) 1:45 PM CDT (7/10)
Length of Visible Light 16h 06m
Length of Day
14h 59m
Waning Gibbous, 54% of the Moon is Illuminated
Jul 10
Waning Gibbous
Jul 10
Last Quarter
Jul 18
New
Jul 26
First Quarter
Aug 1
Full

Hourly Weather History & Observations

Time (CDT) Temp. Heat Index Dew Point Humidity Pressure Visibility Wind Dir Wind Speed Gust Speed Precip Events Conditions
12:53 AM 64.0 °F - 59.0 °F 84% 30.17 in 10.0 mi SSW 4.6 mph - N/A   Clear
1:53 AM 63.0 °F - 59.0 °F 87% 30.16 in 10.0 mi Calm Calm - N/A   Clear
2:53 AM 64.0 °F - 59.0 °F 84% 30.16 in 10.0 mi NNW 3.5 mph - N/A   Clear
3:53 AM 61.0 °F - 57.9 °F 90% 30.15 in 10.0 mi Calm Calm - N/A   Clear
4:53 AM 59.0 °F - 57.2 °F 94% 30.18 in 10.0 mi Calm Calm - N/A   Clear
5:53 AM 60.1 °F - 57.9 °F 93% 30.16 in 10.0 mi Calm Calm - N/A   Clear
6:53 AM 59.0 °F - 57.9 °F 96% 30.17 in 8.0 mi WNW 3.5 mph - N/A   Partly Cloudy
7:53 AM 66.9 °F - 62.1 °F 84% 30.18 in 10.0 mi Calm Calm - N/A   Clear
8:53 AM 72.0 °F - 61.0 °F 68% 30.18 in 10.0 mi ESE 4.6 mph - N/A   Clear
9:53 AM 75.9 °F - 59.0 °F 56% 30.18 in 8.0 mi East 6.9 mph - N/A   Clear
10:53 AM 80.1 °F 80.9 °F 60.1 °F 50% 30.17 in 10.0 mi East 4.6 mph - N/A   Clear
11:53 AM 82.9 °F 83.2 °F 60.1 °F 46% 30.17 in - ESE 5.8 mph - N/A   Clear
12:53 PM 84.9 °F 84.4 °F 59.0 °F 41% 30.16 in - SE 4.6 mph - N/A   Partly Cloudy
1:53 PM 86.0 °F 84.9 °F 57.0 °F 37% 30.14 in 10.0 mi Variable 4.6 mph - N/A   Clear
2:53 PM 84.9 °F 83.9 °F 57.0 °F 38% 30.12 in 10.0 mi Variable 3.5 mph - N/A   Partly Cloudy
3:53 PM 84.9 °F 83.9 °F 57.0 °F 38% 30.11 in 10.0 mi East 8.1 mph - N/A   Clear
4:53 PM 84.9 °F 83.9 °F 57.0 °F 38% 30.11 in 10.0 mi ESE 9.2 mph - N/A   Clear
5:53 PM 84.9 °F 84.2 °F 57.9 °F 40% 30.09 in 10.0 mi East 5.8 mph - N/A   Scattered Clouds
6:53 PM 84.9 °F 83.9 °F 57.0 °F 38% 30.08 in 10.0 mi ESE 11.5 mph - N/A   Clear
7:53 PM 82.9 °F 81.8 °F 53.1 °F 36% 30.08 in 10.0 mi ESE 11.5 mph - N/A   Clear
8:53 PM 78.1 °F - 54.0 °F 43% 30.09 in 10.0 mi SE 6.9 mph - N/A   Clear
9:53 PM 73.9 °F - 55.0 °F 52% 30.12 in 10.0 mi SSE 3.5 mph - N/A   Clear
10:53 PM 72.0 °F - 55.9 °F 57% 30.12 in 10.0 mi South 3.5 mph - N/A   Clear
11:53 PM 68.0 °F - 57.0 °F 68% 30.13 in 10.0 mi SSW 3.5 mph - N/A   Clear